Hourly Data Report for July 08, 2021

TORONTO CITY
ONTARIO
Current Station Operator: ECCC - MSC

43°40'00.000" N
79°24'00.000" W
112.50 m
6158355
71508
XTO

Download Data

Hourly Data (July 2021)
Hourly Data Report for July 8, 2021
TIME
LST
Temp Definition
°C
Dew Point Definition
°C
Rel Hum Definition
%
Precip. Amount Definition
mm

Wind Dir Definition
10's deg

Wind Spd Definition
km/h
Visibility Definition
km
Stn Press Definition
kPa
Hmdx Definition


Wind Chill Definition


Weather Definition


00:00 17.1 12.7 75 0.0       100.04     LegendNANA
01:00 16.4 11.5 73 0.0       100.08     LegendNANA
02:00 16.5 11.9 74 0.0       100.04     LegendNANA
03:00 16.5 11.9 74 0.0       100.03     LegendNANA
04:00 16.4 11.6 73 0.0       99.99     LegendNANA
05:00 16.2 11.7 75 0.0       100.00     LegendNANA
06:00 16.3 12.3 77 0.0       99.99     LegendNANA
07:00 16.3 12.8 80 0.0       99.95     LegendNANA
08:00 15.7 13.7 88 1.1       99.97     LegendNANA
09:00 15.7 14.7 94 5.4       99.87     LegendNANA
10:00 15.9 15.0 94 5.0       99.85     LegendNANA
11:00 16.0 15.2 95 6.0       99.81     LegendNANA
12:00 16.0 14.8 93 6.6       99.82     LegendNANA
13:00 17.2 15.4 89 0.8       99.81     LegendNANA
14:00 17.4 16.0 91 0.5       99.71     LegendNANA
15:00 17.5 16.5 94 1.0       99.72     LegendNANA
16:00 17.8 16.5 93 0.3       99.69     LegendNANA
17:00 18.6 16.9 90 0.0       99.74     LegendNANA
18:00 18.8 17.5 92 0.0       99.72     LegendNANA
19:00 18.7 17.4 92 0.0       99.70     LegendNANA
20:00 18.7 17.6 93 0.0       99.70     LegendNANA
21:00 18.6 17.6 94 0.0       99.74     LegendNANA
22:00 18.3 17.5 95 0.0       99.74     LegendNANA
23:00 18.2 17.6 97 0.0       99.73     LegendNANA

Notes on Data Quality.

Legend

  • E = Estimated
  • M = Missing
  • NA = Not Available*
  • [empty] = Indicates an unobserved value
Date modified: